Theta_e
323 321 322 322 319 321 323 319 317 321 326 324 316 319 326 328 330 337 340 342 346 351 357 363 366 365 366 365 363 360 358 358 356 354 356 355 354 352 351 352 353 352 352 352 352 351 351 351 350 352 353 353 354 354 353 353 354 354 353 352 352 353 352
325 322 322 326 322 324 324 314 316 325 325 326 322 318 322 323 320 327 339 343 342 342 349 364 370 367 366 369 368 364 361 360 358 356 355 356 354 351 350 351 351 352 352 351 352 352 351 351 351 353 354 353 354 354 354 353 354 354 353 352 352 353 354
327 326 325 329 328 327 325 320 324 324 316 317 319 317 318 320 322 329 338 344 343 342 349 361 364 365 367 370 370 367 363 361 361 360 359 360 358 357 358 357 352 352 351 351 352 352 351 351 351 352 354 354 354 354 355 354 354 355 354 353 353 353 354
327 329 328 326 326 329 329 329 334 330 319 314 316 321 322 320 322 328 333 339 344 348 355 360 364 366 366 367 369 371 369 365 364 363 364 366 364 365 365 361 355 351 350 351 351 351 352 351 351 352 354 355 354 355 355 355 355 355 355 354 354 353 354
328 328 328 326 327 330 330 331 333 333 330 324 323 327 323 319 323 327 331 340 346 354 362 365 367 367 364 364 365 368 370 368 363 362 364 364 362 363 362 357 353 350 349 351 351 351 352 351 351 352 353 355 355 355 356 355 355 356 355 354 354 353 354
325 327 329 329 332 331 332 334 333 333 335 330 329 333 328 324 326 325 329 338 347 358 366 365 367 366 365 364 363 364 366 367 365 364 364 362 359 360 358 355 353 351 349 350 350 351 351 350 351 352 353 354 355 355 356 356 356 356 356 355 354 354 353
327 329 329 328 331 332 333 335 333 337 341 333 330 334 332 330 331 331 336 342 350 363 367 366 367 366 364 364 364 364 363 365 368 366 367 366 361 357 355 355 354 350 348 349 350 350 350 350 351 352 353 354 355 356 356 356 356 356 357 356 355 355 354
341 331 331 332 334 335 336 336 335 338 339 338 338 339 338 337 335 338 344 345 352 364 366 366 367 365 364 363 363 364 362 364 366 365 366 367 361 355 354 357 357 351 348 348 348 349 350 350 351 352 353 354 354 355 356 356 356 356 356 356 356 355 354
336 331 332 333 332 334 337 338 339 340 340 343 341 339 345 343 335 339 347 346 353 364 364 364 365 363 362 361 360 361 360 360 363 364 363 362 360 358 355 357 359 357 356 352 347 348 350 349 351 353 353 354 354 355 355 356 356 356 356 356 356 356 355
328 328 328 330 333 337 340 342 342 341 343 344 339 339 345 344 341 346 351 349 355 365 365 362 361 358 357 358 356 355 356 356 357 361 360 356 357 358 356 358 359 360 360 355 348 347 350 350 351 353 353 353 354 355 355 356 356 356 356 356 356 355 355
333 332 335 341 343 338 338 341 342 341 343 345 345 342 344 347 346 346 351 353 355 362 366 360 355 355 355 355 353 353 355 354 354 357 356 352 352 354 354 356 359 363 363 359 352 347 349 351 351 353 353 353 354 355 355 355 356 356 356 356 356 355 355
338 344 350 350 345 338 338 338 340 345 348 348 344 338 338 346 343 339 350 358 352 357 364 358 354 356 356 354 354 354 354 354 354 355 353 351 351 352 353 353 355 361 363 359 353 349 350 352 352 353 353 353 355 355 354 355 356 356 356 356 356 355 355
342 351 352 349 345 342 344 341 340 346 349 347 343 339 342 348 342 341 354 360 354 358 361 354 352 355 353 353 353 351 351 352 352 351 351 351 351 351 353 353 353 354 357 358 353 350 352 352 352 353 353 353 355 354 354 355 355 355 356 355 353 353 354
341 348 347 349 347 341 341 342 344 347 347 347 347 345 347 350 347 350 359 360 358 358 355 353 351 348 349 350 348 347 349 350 349 350 350 350 350 350 350 352 352 352 354 356 352 349 350 350 351 353 353 354 354 353 353 354 353 355 355 353 351 351 353
339 350 348 346 347 342 337 340 348 350 346 347 350 349 351 354 354 357 359 359 358 354 352 352 349 344 347 347 345 346 348 348 349 350 349 349 349 350 349 349 350 350 350 352 351 350 349 348 350 352 353 354 353 353 353 353 353 354 353 351 350 350 353
334 347 342 336 341 339 334 336 343 347 345 345 349 351 353 355 355 354 352 352 354 354 352 351 347 345 347 347 346 346 346 347 350 349 349 350 349 348 347 348 348 348 349 350 350 350 350 349 351 350 350 352 353 353 353 353 353 353 351 351 349 350 353
337 348 339 335 338 333 334 341 342 343 346 347 350 352 353 354 356 355 353 351 353 354 353 353 350 348 348 348 348 348 346 348 349 348 349 348 347 347 347 347 348 348 349 349 348 349 350 351 352 351 350 349 349 351 353 353 353 353 352 351 350 352 354
338 346 341 341 341 335 341 350 344 342 346 349 351 353 352 354 356 357 357 355 354 352 352 353 351 350 350 349 348 348 348 348 348 348 348 346 345 347 346 347 348 347 347 348 348 349 350 351 352 352 351 350 349 349 350 352 353 354 354 354 354 355 355
338 344 339 334 337 346 353 348 340 342 346 347 352 355 354 355 355 356 358 357 352 351 352 352 351 349 349 348 348 348 347 349 349 347 346 346 346 348 348 348 348 346 346 346 346 349 350 351 351 351 350 351 351 350 351 351 351 352 354 356 356 356 355
334 336 333 331 337 349 351 342 340 347 346 344 350 353 353 354 354 357 360 356 350 350 351 350 349 348 347 347 348 349 348 349 349 348 348 348 347 348 348 347 346 346 346 345 345 348 350 351 350 351 350 350 350 350 351 351 351 350 351 353 355 356 356
329 331 334 340 338 335 337 341 346 348 343 342 350 354 351 352 354 358 360 353 349 350 350 349 348 347 347 348 348 348 349 348 347 347 348 348 347 348 347 345 345 346 346 347 346 347 350 351 350 350 351 350 350 350 350 352 352 350 350 350 351 353 355
332 333 329 332 333 332 340 347 344 340 337 340 354 360 355 353 353 354 357 354 349 350 350 349 347 346 350 351 348 346 348 347 346 346 346 345 346 346 345 345 345 345 346 348 347 347 350 350 348 348 350 351 351 350 350 350 350 348 348 348 348 349 353
327 326 320 325 333 338 347 349 341 337 336 338 350 355 353 354 353 352 354 353 349 349 350 348 346 349 355 355 349 346 347 346 345 345 345 344 344 344 344 344 344 344 346 347 348 350 350 349 347 348 349 350 350 349 348 347 346 345 345 345 346 347 349
328 327 323 328 336 341 346 347 343 341 339 338 341 343 345 352 353 352 354 352 349 349 348 347 347 350 354 355 350 347 346 345 344 345 345 344 344 343 344 344 343 344 345 345 346 348 349 348 347 347 347 348 347 346 346 345 345 344 344 345 345 346 347
330 328 325 331 343 350 349 346 345 343 338 336 338 341 348 355 354 353 353 351 350 350 349 349 349 349 349 349 348 346 344 344 344 343 342 343 343 343 343 343 343 343 343 343 344 345 348 349 347 346 346 346 344 344 345 344 344 343 344 345 346 346 347
327 332 336 338 344 351 347 345 351 347 337 338 346 350 353 355 354 353 351 350 351 351 350 349 347 345 346 347 346 345 344 343 343 342 341 341 341 342 342 342 342 342 342 343 342 344 347 349 347 346 347 345 344 344 343 344 345 345 345 347 347 347 348
334 340 343 340 342 348 344 345 355 352 343 348 357 353 349 352 355 353 349 350 350 348 348 347 345 346 347 346 345 344 342 342 341 340 339 340 339 341 342 341 341 342 342 342 342 343 345 347 348 348 348 347 346 346 346 346 347 347 347 347 347 348 348
338 342 346 346 349 353 349 351 359 356 349 354 359 353 349 350 351 351 350 349 347 345 346 347 345 346 346 344 344 343 342 341 340 338 338 339 339 340 341 341 341 341 341 342 342 343 344 345 347 348 347 347 347 347 347 348 347 347 346 346 346 346 344
337 345 352 352 351 349 348 352 357 353 350 353 355 353 350 349 349 350 350 347 345 345 345 346 345 346 344 343 343 342 341 340 339 338 338 338 338 339 340 340 340 340 340 341 341 342 343 343 344 345 345 346 346 346 347 347 347 347 346 346 345 345 344
339 345 345 343 345 345 344 346 349 348 349 351 350 349 349 349 348 348 347 346 346 345 345 345 345 343 342 343 342 341 340 340 338 337 337 337 338 339 339 339 340 339 339 340 340 340 341 341 342 343 343 344 344 344 345 346 346 346 345 344 343 342 344
340 342 341 340 343 344 345 348 348 347 348 349 348 347 348 348 347 346 346 345 345 344 345 345 343 342 341 342 342 341 340 339 338 337 336 337 337 338 338 339 339 339 339 339 339 339 339 339 340 341 341 342 341 341 342 344 344 344 343 342 341 340 341
346 344 345 346 344 342 343 347 350 350 350 348 345 345 347 348 347 346 344 343 344 346 346 342 341 341 341 340 341 341 340 339 338 336 336 337 338 338 338 338 338 338 338 338 338 338 338 338 339 339 339 340 340 340 340 340 341 341 339 338 338 338 339
348 345 345 345 345 345 343 344 347 350 349 347 344 345 348 349 347 345 343 341 341 343 343 341 340 341 341 340 341 342 341 339 337 336 337 338 338 338 338 338 338 338 338 337 336 336 337 337 337 337 337 337 337 338 339 339 339 338 336 336 336 336 337
349 352 349 343 345 350 346 345 348 347 343 344 346 346 347 347 346 346 345 342 340 339 338 338 340 341 341 340 339 340 340 338 336 337 337 337 336 336 335 335 336 337 337 337 336 335 335 336 336 335 335 335 336 336 336 336 337 337 336 335 335 335 336
354 354 348 344 350 355 348 345 348 345 341 344 346 346 347 347 344 344 345 344 342 340 337 336 338 340 340 338 338 339 339 337 335 335 334 334 334 333 331 331 332 334 334 334 334 334 335 335 336 336 336 336 335 334 333 333 334 335 335 335 334 333 334
351 345 344 348 356 356 347 344 346 345 342 344 346 346 347 347 342 340 343 344 340 337 336 334 335 336 335 334 336 338 336 334 333 332 332 332 333 332 331 330 330 331 332 332 332 333 333 334 334 335 335 335 335 334 333 332 332 332 332 333 333 332 332
349 346 346 350 353 351 345 343 345 346 341 342 346 346 344 342 339 337 341 341 334 330 331 331 330 332 332 332 334 335 332 331 331 331 331 332 331 331 331 329 328 329 331 331 332 332 332 333 333 334 334 334 334 334 334 333 333 332 332 332 332 332 331
Wind_Speed
1 3 4 2 5 1 2 2 0 4 4 6 3 3 1 4 2 2 2 2 3 2 2 4 5 7 7 6 1 5 8 8 9 9 9 8 9 11 12 12 12 13 17 21 23 26 25 24 27 29 31 33 34 33 34 32 31 32 32 31 30 29 29
5 4 3 5 6 4 2 2 4 4 0 3 3 1 2 2 1 3 2 3 2 0 1 4 6 6 5 6 5 1 6 8 9 9 9 8 8 11 13 13 13 14 17 21 23 25 28 27 28 31 32 33 34 34 34 33 32 32 32 31 31 30 29
5 6 8 6 7 6 5 0 3 2 1 2 2 1 1 1 1 3 3 1 1 1 1 4 6 5 4 5 5 2 3 7 8 8 7 6 5 6 7 8 9 12 16 21 24 25 29 29 28 31 33 32 33 34 34 34 33 33 32 31 31 31 29
4 5 6 4 6 5 5 4 4 3 1 2 2 1 2 1 2 3 2 2 2 2 2 5 5 5 5 5 5 3 2 3 4 7 7 7 6 5 5 5 4 9 16 23 26 26 29 30 29 31 33 32 32 33 33 33 32 31 31 30 30 31 30
4 2 2 0 2 3 4 6 5 4 2 2 2 1 1 2 1 1 1 1 3 4 2 3 5 5 5 4 4 4 5 5 3 4 4 5 6 6 8 9 6 8 14 23 27 28 30 31 29 30 33 33 32 32 32 33 32 30 30 30 30 30 30
3 2 3 1 2 3 4 3 1 1 1 2 2 3 3 1 1 2 2 1 4 4 1 3 3 3 4 4 4 4 5 5 4 4 3 1 4 5 7 10 9 7 12 20 25 26 27 28 28 29 31 32 32 31 32 32 32 32 31 30 29 30 30
3 5 2 2 4 6 6 4 1 1 1 4 4 1 3 1 2 3 0 1 3 5 1 2 1 1 2 3 3 4 5 4 4 4 4 4 2 6 7 8 8 8 12 18 23 25 25 27 28 28 29 31 32 32 32 32 32 32 31 31 30 30 30
5 6 4 4 5 6 6 3 2 1 1 1 4 3 2 1 2 2 2 2 3 5 3 1 2 2 3 3 4 4 4 4 4 5 4 6 3 6 7 7 7 9 12 16 18 21 24 26 27 28 29 29 31 32 31 32 33 33 31 30 30 30 30
6 7 6 5 4 3 3 1 3 1 2 3 0 1 2 2 1 1 3 1 4 4 4 4 3 4 4 5 5 5 5 4 4 4 4 6 4 2 4 1 1 2 8 12 14 18 22 25 27 29 30 29 30 32 33 33 33 33 32 31 30 30 31
2 2 3 3 3 3 2 2 3 2 2 4 2 1 3 1 2 1 4 3 5 5 5 4 3 4 5 6 6 6 6 5 5 4 4 5 5 4 5 3 2 4 3 6 13 18 20 25 28 29 30 30 30 31 32 32 33 32 30 29 30 30 31
4 5 6 5 2 0 3 3 4 3 3 3 1 2 2 3 2 1 3 5 3 5 6 3 4 5 5 5 6 6 6 6 6 5 4 5 4 3 2 1 3 2 3 5 11 18 20 23 27 29 30 29 29 31 31 31 32 33 33 32 31 31 32
6 7 7 5 3 2 3 3 4 4 4 4 2 1 2 3 4 1 5 5 3 5 4 3 4 4 4 5 5 5 5 5 5 5 5 6 5 4 4 3 3 2 1 4 6 14 21 23 24 27 30 31 31 32 33 33 35 36 37 37 35 33 32
5 6 6 5 5 3 3 3 4 5 5 4 1 3 4 3 4 4 6 6 6 4 2 4 4 5 5 5 5 5 5 5 6 7 8 8 7 5 4 4 4 6 4 4 5 5 11 22 28 28 27 28 30 32 33 34 36 38 39 37 35 34 33
3 5 5 5 5 3 3 4 6 6 5 5 3 4 3 3 4 3 3 5 5 2 2 2 3 5 5 5 5 6 6 6 7 8 8 7 7 5 6 5 4 5 5 3 4 8 9 3 19 28 29 29 30 31 34 35 35 37 39 37 33 33 34
4 5 5 6 6 5 4 5 5 5 5 3 3 3 2 3 1 2 2 4 3 2 1 3 4 4 5 7 7 6 6 5 6 7 8 8 7 5 5 6 5 5 6 6 5 9 12 15 7 7 20 30 35 33 33 35 36 36 38 36 34 32 34
4 5 5 7 6 4 4 6 6 5 3 1 1 2 1 2 1 2 1 3 4 3 0 3 4 5 7 7 5 4 3 4 4 6 7 8 8 6 5 4 3 3 3 4 4 8 9 1 9 12 6 9 25 34 37 37 36 35 36 36 35 33 34
4 6 6 5 1 3 3 5 4 2 2 5 4 2 2 1 2 1 2 4 4 2 1 3 4 4 5 5 3 1 0 1 3 4 6 6 6 6 3 2 1 1 2 4 3 4 10 13 12 6 5 8 5 7 22 33 35 35 34 34 34 34 34
4 6 3 2 4 2 4 4 3 3 2 2 3 2 2 1 2 3 2 3 1 2 3 3 4 3 1 1 2 3 3 2 3 5 5 3 4 6 4 2 2 3 1 4 6 4 6 10 13 14 13 6 6 9 2 13 24 31 33 32 32 34 35
2 2 3 5 1 5 5 0 5 6 6 4 2 2 0 2 5 5 2 1 2 3 2 3 3 4 2 1 2 3 4 3 3 5 4 3 4 6 4 2 3 4 4 2 3 3 3 7 7 7 10 12 11 9 7 7 10 15 24 29 31 31 34
1 1 3 2 4 6 2 4 4 5 7 4 2 1 3 2 3 5 3 3 3 4 3 3 3 4 3 2 2 1 4 4 4 5 4 3 4 5 5 3 2 4 5 4 4 5 2 4 5 5 6 8 12 17 17 17 17 17 18 23 27 29 31
2 3 2 1 2 3 2 1 1 2 5 8 6 2 2 4 1 5 4 4 3 3 3 4 3 1 2 3 3 2 3 4 3 6 4 4 5 5 6 5 5 7 7 5 3 4 5 7 6 5 7 8 12 16 16 17 20 19 16 13 15 19 23
2 4 1 1 1 1 4 3 3 3 3 5 6 5 1 5 2 3 5 5 4 4 4 4 1 2 2 2 1 2 2 3 1 6 7 7 7 6 6 7 8 11 11 9 6 4 6 8 7 7 8 9 10 13 13 10 7 4 4 5 7 6 8
1 4 3 2 2 3 5 4 5 6 6 1 5 5 3 4 3 4 5 5 4 5 5 4 3 4 2 1 2 2 2 3 2 4 7 7 8 8 7 9 11 12 12 12 10 6 7 8 9 9 10 9 9 9 9 7 4 1 1 4 6 5 4
1 3 2 1 2 3 4 5 6 7 6 2 6 2 5 4 4 4 5 5 4 5 4 3 3 1 1 2 3 2 1 2 3 5 7 7 8 8 9 11 13 13 13 13 11 8 6 7 9 11 11 10 9 8 6 4 3 4 6 7 9 9 8
1 2 2 1 2 3 4 5 7 6 4 4 4 3 5 3 4 5 4 5 5 3 3 3 1 3 3 2 1 1 3 3 4 7 9 10 10 9 9 11 13 14 14 13 11 9 6 5 7 10 9 7 7 7 6 4 4 3 7 7 9 12 10
1 2 3 1 3 4 5 5 5 4 2 1 3 5 3 4 5 4 4 5 5 4 5 3 2 2 1 4 4 5 5 5 5 6 8 9 10 9 10 12 13 13 13 12 12 12 9 6 5 5 4 3 4 4 4 3 3 2 4 7 12 15 15
1 2 3 2 2 5 4 2 4 3 2 4 4 2 3 4 5 4 4 4 5 6 6 4 4 4 5 6 5 5 5 4 3 5 6 7 8 9 10 11 12 13 13 12 13 15 14 12 9 6 6 5 5 6 7 5 5 6 6 9 13 15 17
2 2 1 3 4 4 2 2 2 2 3 5 4 4 4 4 5 4 4 4 5 7 8 6 5 6 6 6 5 5 4 3 3 5 6 7 7 8 10 11 12 14 14 14 15 16 16 16 15 13 11 10 9 9 9 8 9 11 11 13 16 18 18
3 4 4 4 4 2 0 2 4 4 3 2 5 6 5 4 4 4 4 5 5 6 8 7 6 6 6 5 5 5 4 3 3 4 4 5 6 7 9 11 13 14 16 16 17 17 16 16 16 15 15 14 12 10 8 8 10 12 14 16 19 20 19
1 2 2 3 4 3 1 1 1 3 2 1 3 6 5 4 4 4 5 6 6 6 7 6 6 6 6 6 5 5 5 4 4 4 5 6 7 8 9 10 11 13 15 17 18 18 17 16 16 16 16 16 14 12 11 11 11 13 15 17 19 20 20
2 1 2 4 5 4 3 2 3 2 1 1 1 4 2 1 3 5 5 6 7 7 6 7 7 7 7 7 5 4 4 4 4 5 6 7 10 11 11 11 12 13 14 15 16 17 16 15 16 16 16 16 15 15 15 14 14 14 16 18 19 19 20
2 2 3 3 3 1 1 3 2 1 2 1 2 4 3 3 4 5 5 7 7 6 5 8 9 7 7 7 6 4 3 3 4 6 7 8 10 11 12 12 13 13 14 14 16 16 15 15 16 16 15 14 13 14 15 16 17 18 18 19 19 20 20
3 1 2 5 5 4 5 4 4 4 3 3 4 4 4 5 6 6 6 6 5 6 7 9 9 8 6 6 6 5 3 3 4 6 7 9 11 11 11 12 13 13 14 15 17 17 16 17 18 18 17 15 13 13 13 14 16 18 19 20 20 21 22
2 3 5 5 4 1 5 6 6 4 3 5 5 4 4 5 5 6 6 5 5 7 10 12 10 8 6 6 6 5 4 4 5 7 8 9 10 11 13 15 16 16 15 15 16 16 16 18 19 19 19 18 17 16 15 15 16 19 20 20 20 20 20
5 7 8 7 4 2 5 6 5 4 4 5 6 5 5 4 4 5 6 6 5 6 9 13 13 9 7 8 8 6 4 6 8 10 11 11 11 13 16 18 18 18 17 16 16 15 15 15 15 15 15 15 16 16 17 18 19 21 21 22 21 20 19
3 4 7 7 4 3 5 6 5 4 4 6 5 5 5 4 4 5 6 5 6 7 7 10 14 14 12 12 11 7 6 9 12 13 14 14 14 14 15 17 18 17 17 17 16 15 14 13 13 14 14 14 14 15 16 17 19 21 22 22 21 20 19
3 3 5 5 4 4 4 4 3 3 5 6 5 5 6 6 6 6 5 5 8 11 8 7 12 16 16 14 13 11 10 12 15 16 14 13 13 13 13 15 16 15 15 15 16 15 14 13 13 13 14 13 13 13 14 15 17 18 19 20 20 19 18
Wind_Direction
94 217 247 127 93 151 279 10 100 228 192 144 175 246 208 118 120 253 206 215 295 334 332 341 37 50 33 23 27 188 188 176 179 196 189 173 174 173 175 179 178 176 177 177 178 180 179 174 175 177 176 178 179 180 182 184 188 189 191 194 195 195 196
327 329 27 45 48 70 73 321 272 261 39 101 126 244 343 64 163 257 206 183 250 84 257 319 18 35 26 18 12 179 179 169 180 201 194 175 171 174 177 177 177 176 177 180 180 181 183 178 175 178 180 180 181 182 183 184 187 189 191 194 194 194 196
332 5 40 25 6 46 94 188 299 11 20 325 17 132 217 6 237 280 325 299 230 172 265 335 1 7 11 8 7 46 162 178 182 193 184 152 133 149 162 166 178 181 179 182 182 182 184 180 176 178 180 181 182 183 184 186 188 191 192 194 193 195 197
339 16 41 12 332 356 50 46 14 22 179 238 284 170 163 173 230 260 325 339 313 256 297 351 356 350 7 359 346 352 283 235 194 191 177 141 119 119 129 136 196 198 183 182 184 182 183 181 178 177 178 181 182 184 185 186 189 191 192 194 195 195 197
8 20 30 13 318 350 32 42 23 345 325 312 308 333 50 128 197 273 244 258 280 266 284 18 11 352 359 358 345 330 304 297 281 240 202 150 136 142 156 163 191 216 193 185 185 185 184 182 178 176 177 181 182 183 185 185 187 189 191 194 195 197 198
5 282 259 219 150 122 104 86 58 297 332 49 44 341 329 77 95 288 250 237 273 275 336 50 24 344 352 8 2 337 316 307 307 308 307 230 158 163 179 175 177 203 199 189 186 186 184 182 179 176 176 179 181 182 184 185 186 188 190 193 196 198 198
265 269 287 71 111 113 97 78 31 254 93 94 108 254 291 1 7 302 304 66 278 277 307 87 73 3 19 24 23 7 345 326 323 321 318 319 198 177 187 185 179 192 200 193 187 184 184 182 180 177 176 178 180 182 183 184 186 189 191 193 195 197 198
301 307 333 47 85 90 73 31 346 12 351 176 158 176 206 72 5 348 60 27 282 279 307 1 75 65 55 35 38 31 358 336 332 322 320 331 305 187 185 197 186 176 190 197 189 183 183 183 181 179 176 177 179 181 182 184 186 189 191 193 194 196 197
340 344 348 357 12 41 66 291 301 345 323 311 299 107 63 58 331 105 108 253 263 274 321 354 32 48 46 32 32 28 1 341 334 333 348 349 346 104 130 214 288 173 186 192 190 185 182 182 183 181 179 178 179 181 182 184 186 187 189 191 194 196 198
338 330 308 297 302 338 3 291 310 343 349 336 321 88 73 97 261 105 121 199 266 291 310 332 13 34 35 24 20 16 0 346 343 351 13 10 15 65 98 108 12 330 282 207 193 188 184 183 184 184 182 180 179 181 183 183 184 184 185 188 191 195 198
183 201 226 233 194 341 318 319 331 329 319 331 32 83 92 173 179 63 176 198 252 292 293 322 17 34 34 23 19 13 360 355 358 2 17 23 30 43 51 124 170 196 299 274 215 193 183 184 185 183 183 181 177 177 178 180 182 183 184 187 189 193 198
205 198 213 223 168 172 250 283 313 299 291 320 33 83 228 174 112 311 239 194 199 263 290 6 27 31 32 25 21 15 6 2 2 12 25 25 27 49 51 9 323 291 321 312 250 198 178 173 178 180 180 179 175 173 175 177 181 185 189 191 189 190 196
231 204 209 211 182 200 238 240 264 274 282 301 301 232 243 165 132 229 232 195 206 256 352 36 26 25 33 34 28 23 27 28 24 31 40 35 23 25 55 60 3 335 333 359 341 274 186 167 168 173 174 172 170 169 172 176 181 187 191 193 191 189 194
267 229 217 204 191 224 264 251 250 251 258 270 258 250 255 127 139 209 193 186 219 278 37 56 33 33 44 47 36 28 28 34 42 45 46 51 50 30 19 40 45 358 338 4 30 355 341 175 168 169 168 167 167 168 171 176 181 187 191 193 193 191 194
306 262 213 199 197 214 251 273 274 261 258 284 322 311 327 92 85 317 132 171 241 306 49 75 53 46 54 50 38 30 15 6 37 58 54 49 58 60 40 29 30 21 0 353 44 55 17 349 334 174 167 166 168 171 173 177 183 188 191 194 195 196 197
288 257 210 214 214 210 264 289 297 291 267 175 89 287 268 118 40 338 89 185 249 279 263 83 59 49 60 58 45 35 8 344 12 58 67 58 56 58 55 43 32 46 49 2 21 87 107 35 329 337 329 172 169 172 176 181 186 189 192 195 198 201 201
274 258 211 211 184 47 308 266 247 253 179 145 146 238 281 100 116 123 179 213 235 270 25 79 68 58 67 73 65 42 332 358 28 58 66 67 75 77 61 30 337 300 138 153 177 133 141 167 181 200 291 328 339 182 179 182 185 187 192 196 199 203 203
265 262 206 87 49 55 256 242 160 98 59 114 138 170 271 344 97 135 184 211 206 46 72 108 115 122 136 142 172 201 211 175 105 88 82 81 93 91 69 15 319 302 325 143 168 164 153 169 173 171 178 200 320 336 280 190 188 188 191 195 198 200 199
229 279 73 55 349 235 243 45 95 85 66 68 95 102 20 47 100 126 162 187 125 103 127 166 153 150 169 170 176 214 241 218 136 105 115 144 118 99 88 39 330 312 331 36 86 88 150 178 171 158 166 181 197 209 222 236 227 205 194 192 194 196 195
172 58 89 141 242 254 313 47 79 96 102 134 182 18 348 352 126 152 190 219 176 134 154 204 176 142 124 78 76 300 278 244 157 125 141 152 116 104 104 85 2 348 353 354 25 49 91 172 175 162 157 174 192 195 198 209 223 230 217 201 195 195 195
160 134 164 225 300 315 352 61 212 165 157 185 189 150 302 302 202 161 177 203 186 142 178 218 200 130 66 50 35 346 302 262 169 125 113 90 82 86 92 83 49 41 40 19 18 64 113 143 156 157 149 166 195 206 209 209 213 226 237 224 209 205 201
128 106 116 328 30 273 254 254 268 273 230 198 150 116 284 288 269 178 174 183 177 161 199 216 136 35 21 61 45 347 325 286 179 103 87 68 63 65 79 79 59 47 42 39 50 87 121 126 136 151 152 162 189 205 218 222 215 232 273 265 258 248 218
108 112 143 211 187 218 248 277 302 308 299 247 104 75 306 262 216 187 172 172 174 178 199 195 95 54 11 313 286 317 348 310 319 83 86 74 63 54 57 69 65 54 45 46 57 87 118 119 127 144 153 162 178 196 217 234 249 316 342 261 257 258 249
222 133 148 216 224 233 259 283 294 298 304 36 86 56 274 232 190 189 167 160 178 184 185 163 105 106 207 224 265 292 21 347 3 60 73 71 59 45 43 56 61 59 55 52 55 64 87 119 139 144 144 152 163 177 194 205 220 225 229 242 236 224 234
275 131 136 225 252 239 250 273 288 303 335 54 101 212 237 191 177 193 158 148 170 165 133 126 167 230 212 159 126 45 58 44 31 45 57 62 59 48 44 51 58 60 56 56 61 64 70 111 148 151 146 144 146 150 151 123 95 172 205 205 192 187 191
8 124 120 25 293 258 247 269 303 338 25 145 216 220 197 152 173 183 146 143 157 134 111 122 159 190 110 81 80 73 65 51 29 31 43 51 50 47 47 50 56 61 57 55 59 63 70 101 147 165 154 135 122 113 106 82 70 108 158 150 151 157 153
73 69 80 72 268 257 257 294 334 7 131 202 220 180 139 158 171 161 137 138 140 127 122 128 128 111 88 80 80 74 65 56 39 36 41 43 38 40 47 52 59 64 61 56 59 62 68 85 107 121 110 92 82 77 70 67 84 95 103 120 129 128 125
106 103 174 191 208 239 248 142 177 222 210 200 172 139 154 181 172 161 152 140 138 136 135 130 119 104 95 94 94 87 85 80 60 49 50 51 49 50 56 61 66 71 70 65 64 65 67 78 93 103 103 90 73 69 72 79 95 100 96 100 103 100 98
152 172 202 204 191 207 20 128 170 190 214 210 166 156 169 184 176 165 146 134 134 135 131 125 116 109 108 112 114 112 115 111 97 85 67 59 66 73 75 72 69 72 76 75 72 68 66 72 82 89 95 93 82 76 87 97 102 103 98 94 95 95 96
79 91 113 130 133 138 93 47 115 150 157 216 179 159 167 188 174 146 130 134 139 136 132 125 121 124 127 124 120 123 126 120 111 103 81 71 84 92 86 78 74 74 76 76 75 71 66 68 74 78 85 91 88 88 104 112 108 105 103 99 95 96 99
85 77 171 157 151 165 163 108 46 47 110 249 141 124 114 115 139 132 129 135 138 136 134 131 130 136 135 127 123 124 123 117 110 102 92 84 86 90 90 87 84 82 80 78 77 75 70 68 73 76 81 86 89 95 104 110 112 108 103 99 97 96 99
118 202 199 149 119 130 187 154 142 170 185 173 47 65 72 80 102 115 120 130 135 132 129 132 133 134 133 131 133 134 125 119 112 112 110 99 89 89 96 100 95 89 85 84 82 79 76 75 78 80 80 81 87 96 100 105 110 107 100 98 98 98 99
71 86 115 96 68 357 311 263 234 219 184 130 73 67 89 98 98 98 101 115 129 133 136 139 136 134 138 138 134 135 137 128 121 121 115 104 96 92 93 98 102 102 97 92 87 82 81 83 84 82 80 79 81 88 94 100 104 102 98 98 99 100 103
154 207 180 152 137 232 254 238 226 212 165 127 109 105 112 119 123 119 113 114 122 135 145 146 137 135 145 143 137 142 148 127 120 124 118 106 96 91 88 91 98 103 103 101 98 93 90 90 88 86 84 80 77 79 87 94 97 99 100 100 99 99 101
211 214 192 169 147 190 226 221 210 189 153 137 139 142 139 143 140 128 127 130 123 126 142 146 141 139 144 144 143 144 134 121 118 119 118 112 102 94 92 92 94 99 103 104 104 103 99 93 90 88 85 81 77 78 84 89 93 97 100 99 96 95 97
212 213 184 166 154 188 201 197 201 197 160 144 148 148 146 150 138 126 134 145 137 130 135 144 144 142 143 147 149 144 129 127 127 124 121 117 111 104 99 97 97 100 105 107 107 106 103 96 92 89 88 88 87 85 85 87 91 93 94 95 95 96 99
149 169 164 152 155 163 154 157 196 207 165 148 147 150 154 156 149 138 134 134 136 134 128 130 141 143 144 146 147 145 141 138 134 130 124 118 114 111 107 104 102 99 101 106 111 111 107 101 97 96 95 94 94 92 87 86 87 89 91 94 98 102 105